Location: Bli��� Lhota
(48.7570°N, 14.0120°E)
Time: 08:20:29
(UTC+00:00)

IGS 5A - Pass Details

Date: 18 September 2020
Orbit: 583 x 588 km, 97.6° (Epoch: 09 October)

Event Time Altitude Azimuth Distance (km) Brightness Sun altitude
Exits shadow 19:37:08 40° 31° (NNE) 880 4.3 -23.8°
Drops below altitude 10° 19:40:11 10° 357° (N) 1,918 6.5 -24.2°
Sets 19:42:24 0° 352° (N) 2,823 7.5 -24.5°
